[[{"header":{"parameterUnit":"m.s-1","parameterCategory":1,"la1":30.2991,"la2":30.254,"lo1":-89.0895,"lo2":-89.0444,"dx":0.0017,"dy":0.0017,"nx":28,"ny":28,"refTime":"2022-11-17T15:00:00:Z","depth":0,"parameterNumber":2,"parameterNumberName":"U-component_of_WINDS"},"data":[0,0,0,0,0,0,0,0,0,0,0,0,0,0,0,0,0,0,0,0,0,0,0,0,0,0,0,0,0,0,0,0,0,0,0,0,0,0,0,0,0,0,0,0,0,0,0,0,0,0,0,0,0,0,0,0,0,0,0.7382,0.7381,0,0.7332,0.7332,0.7331,0.7341,0.7342,0.7343,0.7344,0.729,0.7287,0.7285,0,0,0,0,0,0,0,0,0,0,0,0,0,0.7482,0.748,0.7382,0.7381,0.7381,0.7332,0.7332,0.7331,0.7341,0.7342,0.7344,0.7345,0.729,0.7288,0.7285,0,0,0,0,0,0,0,0,0,0,0,0,0,0.7436,0.748,0.7382,0.738,0.7379,0.7333,0.7332,0.7331,0.7341,0.7342,0.7344,0.7345,0.7291,0.7288,0.7284,0.7235,0,0,0.7274,0.7272,0,0,0,0,0,0,0,0,0.7439,0.7432,0.7381,0.738,0.7379,0.7345,0.7347,0.7299,0.7341,0.7355,0.7344,0.7346,0.7307,0.7302,0.7289,0.7233,0.723,0.7274,0.7271,0.727,0.7269,0,0,0,0,0,0,0,0.7442,0.7435,0.7362,0.738,0.7379,0.7381,0.7376,0.7338,0.7324,0.7354,0.7355,0.7349,0.7306,0.7293,0.7288,0.723,0.7274,0.7271,0.7268,0.7267,0.7129,0.7128,0,0,0,0,0,0,0.7446,0.7437,0.7364,0.7361,0.7413,0.7378,0.7372,0.7354,0.7324,0.7321,0.7348,0.735,0.7298,0.7292,0.7286,0.7226,0.727,0.7267,0.7265,0.7131,0.7129,0.7127,0,0,0,0,0,0,0.7449,0.744,0.7366,0.7399,0.739,0.7375,0.7354,0.7353,0.7339,0.732,0.7317,0.7337,0.7299,0.7291,0.7248,0.7224,0.7265,0.7262,0.7133,0.713,0.7128,0.7104,0,0,0,0,0,0,0.7451,0.744,0.7422,0.7399,0.7388,0.7329,0.7353,0.7351,0.7333,0.7335,0.7308,0.7305,0.7299,0.7253,0.7245,0.722,0.7259,0.7135,0.7132,0.7129,0.7107,0.7101,0.7097,0,0,0,0,0,0.7455,0.7417,0.7421,0.7412,0.7365,0.7328,0.7321,0.7317,0.7332,0.7312,0.73,0.7306,0.7229,0.7249,0.7239,0.7213,0.7136,0.7133,0.7129,0.711,0.7103,0.7097,0,0,0,0,0,0,0.7436,0.7414,0.7418,0.7372,0.7352,0.7329,0.7305,0.731,0.7284,0.7286,0.7281,0.7274,0.723,0.7218,0.724,0.7164,0.7184,0.7179,0.7173,0.7166,0.7161,0.7163,0.7256,0,0,0,0,0,0.7427,0.74,0.7381,0.7342,0.7332,0.732,0.7304,0.7302,0.728,0.7272,0.7256,0.7234,0.7205,0.7185,0.7157,0.7107,0.71,0.7084,0.7079,0.7074,0.7069,0.704,0.7032,0.7116,0.7116,0.7116,0,0,0.7407,0.7391,0.7374,0.7338,0.7322,0.7292,0.7313,0.7281,0.7258,0.7266,0.7224,0.7212,0.7187,0.714,0.7118,0.7128,0.7045,0.707,0.7067,0.7063,0.7035,0.7027,0.702,0.7113,0.7114,0.7114,0,0,0.7355,0.7341,0.7306,0.729,0.7267,0.726,0.7252,0.7229,0.7222,0.718,0.7185,0.7159,0.7108,0.709,0.7074,0.7017,0.702,0.7008,0.6979,0.6951,0.6944,0.6938,0.6916,0.6908,0.7003,0.7003,0.7003,0,0.7332,0.7289,0.7287,0.7255,0.7238,0.7246,0.721,0.7194,0.7162,0.715,0.7162,0.71,0.7084,0.7031,0.7018,0.7005,0.6994,0.7009,0.6946,0.694,0.6934,0.6912,0.6904,0.7001,0.7001,0.7002,0.7002,0,0.7261,0.7231,0.7206,0.7176,0.7157,0.7122,0.7115,0.7095,0.7096,0.7087,0.7044,0.7026,0.6994,0.6982,0.6982,0.693,0.6936,0.6947,0.6968,0.6924,0.6904,0.6896,0.6999,0.7,0.7,0.7,0,0,0.7193,0.7164,0.7154,0.7141,0.7116,0.7092,0.7059,0.7029,0.7011,0.699,0.696,0.6918,0.6928,0.691,0.6909,0.6884,0.6838,0.6898,0.6897,0.6885,0.6777,0.6767,0.6758,0.6842,0.684,0.6839,0.6778,0,0.7136,0.7078,0.7076,0.7021,0.6993,0.7001,0.6971,0.6953,0.6944,0.6918,0.6909,0.6878,0.6895,0.6884,0.6861,0.6848,0.6815,0.6853,0.6812,0.681,0.6815,0.6747,0.6736,0.668,0.6771,0.6769,0.6768,0,0.7062,0.7039,0.6982,0.6962,0.695,0.6923,0.6895,0.6871,0.685,0.6845,0.6826,0.6828,0.6792,0.6817,0.6766,0.6792,0.6775,0.6767,0.6765,0.6758,0.6784,0.6736,0.6662,0.6652,0.6756,0.6757,0.6758,0,0.7015,0.697,0.693,0.6918,0.6894,0.6875,0.6864,0.6844,0.6827,0.6802,0.679,0.6762,0.6746,0.6724,0.6718,0.6736,0.6667,0.6691,0.666,0.666,0.6643,0.6643,0.6562,0.6637,0.6637,0.6637,0.6637,0,0.6951,0.6915,0.6909,0.6883,0.6843,0.6842,0.6802,0.6792,0.6775,0.6747,0.6754,0.6727,0.6722,0.6695,0.669,0.6648,0.6641,0.6635,0.6634,0.6633,0.6633,0.662,0.6622,0.6635,0.6636,0.6636,0.6636,0,0.689,0.6885,0.6841,0.6823,0.6817,0.6788,0.6771,0.6747,0.674,0.6705,0.6697,0.6686,0.6653,0.6646,0.6608,0.6605,0.6554,0.6558,0.6561,0.6561,0.653,0.6532,0.6434,0.642,0.6507,0.6506,0.6506,0,0.6848,0.682,0.6799,0.6782,0.677,0.6742,0.6724,0.6722,0.6703,0.6678,0.6656,0.6625,0.6599,0.6548,0.6535,0.6506,0.6507,0.6475,0.6502,0.6502,0.6503,0.6504,0.65,0.6469,0.6468,0.6467,0.6466,0,0.6772,0.6771,0.6746,0.6719,0.6698,0.6677,0.6657,0.6642,0.6638,0.6616,0.6584,0.6565,0.6526,0.6494,0.6465,0.6453,0.6458,0.6459,0.6449,0.6447,0.6448,0.6445,0.6544,0.646,0.6461,0.6461,0.6461,0.6462,0.6717,0.6693,0.6675,0.6646,0.6631,0.6613,0.6588,0.6579,0.6553,0.6522,0.6523,0.6487,0.6467,0.6429,0.6415,0.6386,0.6395,0.6383,0.6379,0.6375,0.6371,0.6456,0.6381,0.6381,0.6381,0.6381,0.6382,0,0.664,0.6629,0.6603,0.6575,0.6553,0.6563,0.6541,0.6521,0.649,0.6471,0.6447,0.6409,0.6379,0.6365,0.6335,0.6315,0.6316,0.6307,0.6306,0.6303,0.6365,0.6375,0.6306,0.6306,0.6306,0.6306,0.6306,0.6306,0.6597,0.6556,0.6553,0.6505,0.6494,0.646,0.6446,0.6429,0.6414,0.6372,0.6348,0.634,0.6322,0.6291,0.6264,0.6261,0.6248,0.6236,0.6234,0.6291,0.6299,0.6306,0.6315,0.6234,0.6234,0.6173,0.6173,0.6172]},{"header":{"parameterUnit":"m.s-1","parameterCategory":1,"la1":30.2991,"la2":30.254,"lo1":-89.0895,"lo2":-89.0444,"dx":0.0017,"dy":0.0017,"nx":28,"ny":28,"refTime":"2022-11-17T15:00:00:Z","depth":0,"parameterNumber":3,"parameterNumberName":"V-component_of_WINDS"},"data":[0,0,0,0,0,0,0,0,0,0,0,0,0,0,0,0,0,0,0,0,0,0,0,0,0,0,0,0,0,0,0,0,0,0,0,0,0,0,0,0,0,0,0,0,0,0,0,0,0,0,0,0,0,0,0,0,0,0,-5.0907,-5.0909,0,-5.108,-5.1082,-5.1084,-5.1013,-5.1009,-5.1005,-5.1001,-5.1176,-5.1184,-5.1193,0,0,0,0,0,0,0,0,0,0,0,0,0,-5.0512,-5.052,-5.0907,-5.0909,-5.0911,-5.108,-5.1082,-5.1085,-5.1014,-5.1009,-5.1004,-5.0999,-5.1173,-5.1183,-5.1194,0,0,0,0,0,0,0,0,0,0,0,0,0,-5.0684,-5.0522,-5.0906,-5.0896,-5.0897,-5.108,-5.1082,-5.1085,-5.1015,-5.1009,-5.1003,-5.0997,-5.117,-5.1182,-5.1195,-5.1397,0,0,-5.1234,-5.1239,0,0,0,0,0,0,0,0,-5.0675,-5.0699,-5.0896,-5.0897,-5.0899,-5.1019,-5.1007,-5.119,-5.1017,-5.097,-5.1001,-5.0994,-5.1129,-5.1144,-5.119,-5.1405,-5.1412,-5.1235,-5.1243,-5.1248,-5.1252,0,0,0,0,0,0,0,-5.0663,-5.0691,-5.0975,-5.0899,-5.0901,-5.0882,-5.09,-5.1041,-5.1082,-5.0974,-5.0969,-5.0991,-5.1128,-5.1178,-5.1194,-5.1415,-5.1235,-5.1246,-5.1254,-5.1259,-5.1804,-5.181,0,0,0,0,0,0,-5.0651,-5.0681,-5.097,-5.0981,-5.0769,-5.0894,-5.0914,-5.0987,-5.108,-5.1088,-5.0996,-5.0987,-5.116,-5.1179,-5.12,-5.1443,-5.1248,-5.126,-5.1267,-5.1797,-5.1805,-5.1813,0,0,0,0,0,0,-5.0643,-5.0677,-5.0963,-5.083,-5.0865,-5.0908,-5.099,-5.0993,-5.1043,-5.1097,-5.1103,-5.104,-5.1155,-5.1182,-5.1348,-5.1448,-5.1266,-5.1277,-5.1789,-5.1799,-5.1809,-5.193,0,0,0,0,0,0,-5.0632,-5.0675,-5.0753,-5.0832,-5.0872,-5.111,-5.0996,-5.1001,-5.1066,-5.1055,-5.114,-5.1148,-5.1153,-5.133,-5.1361,-5.1462,-5.1287,-5.178,-5.1793,-5.1806,-5.1917,-5.1943,-5.1965,0,0,0,0,0,-5.0618,-5.0779,-5.0757,-5.0792,-5.0971,-5.1116,-5.1139,-5.1142,-5.1074,-5.1152,-5.1186,-5.1145,-5.1432,-5.1348,-5.1382,-5.1488,-5.1774,-5.179,-5.1805,-5.1906,-5.1938,-5.1964,0,0,0,0,0,0,-5.0709,-5.0789,-5.0766,-5.0958,-5.1031,-5.1104,-5.1202,-5.1175,-5.1268,-5.1255,-5.1254,-5.1273,-5.1445,-5.1483,-5.1388,-5.1688,-5.1592,-5.1615,-5.1658,-5.1688,-5.1711,-5.1699,-5.1298,0,0,0,0,0,-5.0752,-5.0864,-5.0927,-5.1091,-5.1128,-5.116,-5.1223,-5.1219,-5.1294,-5.1324,-5.1371,-5.1445,-5.1551,-5.1621,-5.1722,-5.1922,-5.1939,-5.2012,-5.2035,-5.2055,-5.2075,-5.2183,-5.2217,-5.1863,-5.1863,-5.1863,0,0,-5.0841,-5.0898,-5.0969,-5.111,-5.1166,-5.1282,-5.1186,-5.1312,-5.1397,-5.1343,-5.1504,-5.1541,-5.1623,-5.1807,-5.189,-5.1843,-5.2176,-5.2074,-5.2089,-5.2099,-5.2203,-5.2236,-5.2266,-5.1874,-5.1872,-5.187,0,0,-5.1062,-5.1117,-5.1259,-5.1318,-5.1404,-5.1423,-5.1458,-5.1535,-5.1558,-5.1719,-5.1681,-5.1782,-5.1966,-5.2026,-5.2081,-5.2325,-5.229,-5.2358,-5.2483,-5.2589,-5.2616,-5.2641,-5.2729,-5.276,-5.2377,-5.2378,-5.2378,0,-5.1161,-5.1335,-5.1335,-5.1466,-5.1529,-5.1486,-5.1629,-5.1685,-5.18,-5.1845,-5.1791,-5.2021,-5.2073,-5.2271,-5.233,-5.2376,-5.2415,-5.2348,-5.2613,-5.2637,-5.266,-5.2744,-5.2777,-5.2385,-5.2384,-5.2384,-5.2383,0,-5.1453,-5.1574,-5.1678,-5.1792,-5.1866,-5.2002,-5.2023,-5.2098,-5.2088,-5.2113,-5.2278,-5.2339,-5.2452,-5.2498,-5.2488,-5.2695,-5.2663,-5.2611,-5.2515,-5.2702,-5.278,-5.2812,-5.2396,-5.2394,-5.2391,-5.2389,0,0,-5.1738,-5.1849,-5.1888,-5.1939,-5.2031,-5.2124,-5.2258,-5.2369,-5.2434,-5.2514,-5.2626,-5.2783,-5.2735,-5.2798,-5.2794,-5.2887,-5.3077,-5.2824,-5.2826,-5.2869,-5.3309,-5.3348,-5.3386,-5.3055,-5.3061,-5.3066,-5.3302,0,-5.1967,-5.2203,-5.2207,-5.2423,-5.2535,-5.2495,-5.2612,-5.2681,-5.2707,-5.2805,-5.2834,-5.2945,-5.2874,-5.2911,-5.3001,-5.3035,-5.3166,-5.3018,-5.3159,-5.3164,-5.3141,-5.3426,-5.3469,-5.3689,-5.3333,-5.3338,-5.3342,0,-5.2266,-5.2357,-5.2585,-5.2661,-5.2708,-5.2813,-5.2915,-5.3009,-5.3086,-5.3099,-5.3169,-5.3152,-5.3288,-5.3186,-5.3373,-5.3273,-5.333,-5.3356,-5.3364,-5.3378,-5.3265,-5.3449,-5.3759,-5.3793,-5.339,-5.3386,-5.3383,0,-5.2451,-5.2631,-5.279,-5.2835,-5.2928,-5.3003,-5.3045,-5.3115,-5.3182,-5.3271,-5.3314,-5.3418,-5.3475,-5.3554,-5.3566,-5.3491,-5.3754,-5.3653,-5.3768,-5.3768,-5.3826,-5.3823,-5.4151,-5.3862,-5.3861,-5.3861,-5.386,0,-5.2707,-5.2848,-5.2875,-5.2974,-5.313,-5.3133,-5.3288,-5.3324,-5.3387,-5.3491,-5.3462,-5.356,-5.3569,-5.3669,-5.3679,-5.3832,-5.3858,-5.3872,-5.3873,-5.3876,-5.3874,-5.3914,-5.3899,-5.387,-5.3868,-5.3866,-5.3864,0,-5.2942,-5.2965,-5.3137,-5.3211,-5.3233,-5.3345,-5.3408,-5.3502,-5.3525,-5.3657,-5.3688,-5.3725,-5.3842,-5.3861,-5.3998,-5.4004,-5.4189,-5.4173,-5.4164,-5.4162,-5.4276,-5.4266,-5.4643,-5.4693,-5.437,-5.4373,-5.4376,0,-5.3104,-5.3212,-5.3298,-5.3366,-5.3412,-5.3522,-5.359,-5.3597,-5.3669,-5.3764,-5.3847,-5.3961,-5.4053,-5.4242,-5.428,-5.4385,-5.4373,-5.4497,-5.4388,-5.4387,-5.4376,-5.437,-5.4381,-5.4519,-5.4522,-5.4525,-5.4528,0,-5.339,-5.3396,-5.3496,-5.3601,-5.3684,-5.3766,-5.3844,-5.3901,-5.3917,-5.3999,-5.412,-5.4191,-5.4331,-5.4445,-5.4549,-5.4591,-5.4563,-5.4562,-5.4594,-5.4598,-5.4589,-5.4596,-5.4222,-5.4553,-5.4551,-5.4549,-5.4547,-5.4546,-5.3594,-5.3688,-5.3764,-5.3876,-5.3935,-5.4009,-5.4101,-5.4136,-5.4237,-5.4352,-5.4349,-5.4481,-5.4555,-5.4692,-5.4741,-5.4844,-5.4803,-5.485,-5.4862,-5.4874,-5.4885,-5.4571,-5.4862,-5.4862,-5.4861,-5.486,-5.486,0,-5.3879,-5.3926,-5.4029,-5.4139,-5.4228,-5.4194,-5.4278,-5.4354,-5.4471,-5.4542,-5.4633,-5.4771,-5.4881,-5.4929,-5.5037,-5.511,-5.51,-5.5139,-5.5134,-5.5144,-5.4915,-5.4876,-5.5145,-5.5145,-5.5145,-5.5145,-5.5145,-5.5145,-5.4038,-5.4196,-5.4212,-5.4398,-5.4443,-5.4573,-5.4625,-5.4692,-5.4749,-5.4905,-5.4997,-5.5027,-5.5089,-5.5201,-5.5301,-5.5312,-5.5354,-5.5399,-5.5404,-5.5189,-5.516,-5.5133,-5.5097,-5.5407,-5.5408,-5.5625,-5.5627,-5.5628]}]]